Location: Glasgow
(55.8642°N, 4.2518°W)
Time: 14:51:03
(UTC+01:00)

ISS - Pass Details

Date: 15 October 2017
Orbit: 401 x 408 km, 51.6° (Epoch: 22 October)

Event Time Altitude Azimuth Distance (km) Brightness Sun altitude
Rises 18:54:55 0° 271° (W) 2,325 2.4 -6.2°
Reaches altitude 10° 18:57:53 10° 242° (WSW) 1,463 0.3 -6.6°
Maximum altitude 18:59:24 13° 214° (SW) 1,309 -0.7 -6.8°
Drops below altitude 10° 19:00:56 10° 186° (S) 1,462 -0.8 -7.0°
Sets 19:03:54 0° 157° (SSE) 2,319 -0.2 -7.4°
